Weather History for Memphis, TN

Change the Weather History Date:

Thursday, June 2, 2011

  Actual Average Record
Temperature  
Mean Temperature 85 °F 76 °F  
Max Temperature 95 °F 86 °F 98 °F (1895)
Min Temperature 74 °F 67 °F 52 °F (1948)
Degree Days  
Heating Degree Days 0 0  
Month to date heating degree days 0  
Since 1 June heating degree days 0  
Since 1 July heating degree days 2964  
Cooling Degree Days 20 12  
Month to date cooling degree days 40 23  
Year to date cooling degree days 416 344  
Since 1 June cooling degree days 40 23  
Growing Degree Days 35 (Base 50)    
Moisture  
Dew Point 67 °F    
Average Humidity 58    
Maximum Humidity 79    
Minimum Humidity 36    
Precipitation  
Precipitation 0.00 in 0.15 in 2.80 in (1884)
Month to date precipitation 0.00 0.29  
Year to date precipitation 28.68 24.57  
Snow  
Snow 0.00 in 0.00 in - ()
Month to date snowfall 0.0  
Since 1 June snowfall 0.0  
Since 1 July snowfall 3.8  
Snow Depth -    
Sea Level Pressure  
Sea Level Pressure 30.06 in    
Wind  
Wind Speed 4 mph (East)    
Max Wind Speed 12 mph    
Max Gust Speed 15 mph    
Visibility 10 miles    
Events      
T = Trace of Precipitation, MM = Missing Value Source: NWS Daily Summary

Daily Weather History Graph

Daily Weather History Graph

Search for Another Location

Airport:

Trip Planner

Search our weather history database for the weather conditions in past years. The results will help you decide how hot, cold, wet, or windy it might be!

Date:

Astronomy

Jun. 02, 2011 Rise Set
Actual Time 5:46 AM CDT 8:09 PM CDT
Civil Twilight 5:17 AM CDT 8:38 PM CDT
Nautical Twilight 4:41 AM CDT 9:14 PM CDT
Astronomical Twilight 4:02 AM CDT 9:54 PM CDT
Moon 6:17 AM CDT (6/2) 9:09 PM CDT (6/2)
Length of Visible Light 15h 21m
Length of Day
14h 22m
New Moon, 1% of the Moon is Illuminated
Jun 2
New Moon
Jun 8
First Quarter
Jun 15
Full
Jun 23
Last Quarter
Jul 1
New

Hourly Weather History & Observations

Time (CDT) Temp. Heat Index Dew Point Humidity Pressure Visibility Wind Dir Wind Speed Gust Speed Precip Events Conditions
12:53 AM 80.1 °F 81.9 °F 64.9 °F 60% 30.09 in 10.0 mi Calm Calm - N/A   Partly Cloudy
1:53 AM 78.1 °F - 64.9 °F 64% 30.09 in 10.0 mi Calm Calm - N/A   Partly Cloudy
2:53 AM 75.9 °F - 66.0 °F 71% 30.08 in 10.0 mi Calm Calm - N/A   Clear
3:53 AM 78.1 °F - 66.0 °F 66% 30.08 in 10.0 mi Calm Calm - N/A   Partly Cloudy
4:53 AM 75.9 °F - 66.0 °F 71% 30.09 in 10.0 mi Calm Calm - N/A   Scattered Clouds
5:53 AM 75.0 °F - 68.0 °F 79% 30.10 in 10.0 mi Calm Calm - N/A   Mostly Cloudy
6:53 AM 79.0 °F - 69.1 °F 72% 30.10 in 10.0 mi Calm Calm - N/A   Scattered Clouds
7:53 AM 82.4 °F 86.3 °F 69.8 °F 66% 30.12 in 10.0 mi ESE 3.5 mph - N/A   Mostly Cloudy
8:53 AM 87.1 °F 92.0 °F 70.0 °F 57% 30.13 in 10.0 mi East 4.6 mph - N/A   Mostly Cloudy
9:53 AM 89.1 °F 94.1 °F 70.0 °F 53% 30.12 in 10.0 mi Calm Calm - N/A   Mostly Cloudy
10:53 AM 90.0 °F 92.8 °F 66.9 °F 46% 30.10 in 10.0 mi Variable 3.5 mph - N/A   Overcast
11:53 AM 91.9 °F 94.1 °F 64.9 °F 41% 30.09 in 10.0 mi Variable 6.9 mph - N/A   Overcast
12:53 PM 93.9 °F 97.5 °F 66.9 °F 41% 30.07 in 10.0 mi ENE 6.9 mph - N/A   Overcast
1:53 PM 95.0 °F 97.9 °F 66.0 °F 38% 30.06 in 10.0 mi ENE 5.8 mph - N/A   Mostly Cloudy
2:53 PM 95.0 °F 97.4 °F 64.9 °F 37% 30.04 in 10.0 mi North 8.1 mph - N/A   Mostly Cloudy
3:53 PM 93.9 °F 97.0 °F 66.0 °F 40% 30.02 in 10.0 mi ENE 3.5 mph - N/A   Overcast
4:53 PM 93.0 °F 95.9 °F 66.0 °F 41% 30.01 in 10.0 mi NE 10.4 mph - N/A   Overcast
5:53 PM 93.9 °F 97.0 °F 66.0 °F 40% 30.00 in 10.0 mi ENE 6.9 mph - N/A   Mostly Cloudy
6:53 PM 91.9 °F 94.5 °F 66.0 °F 42% 29.99 in 10.0 mi East 9.2 mph - N/A   Mostly Cloudy
7:53 PM 89.1 °F 92.9 °F 68.0 °F 50% 30.00 in 10.0 mi East 6.9 mph - N/A   Mostly Cloudy
8:53 PM 88.0 °F 90.7 °F 66.9 °F 49% 30.01 in 10.0 mi SE 4.6 mph - N/A   Mostly Cloudy
9:53 PM 86.0 °F 89.4 °F 68.0 °F 55% 30.02 in 10.0 mi ESE 3.5 mph - N/A   Partly Cloudy
10:53 PM 86.0 °F 90.1 °F 69.1 °F 57% 30.02 in 10.0 mi ESE 8.1 mph - N/A   Partly Cloudy
11:53 PM 84.0 °F 87.8 °F 69.1 °F 61% 30.01 in 10.0 mi SE 4.6 mph - N/A   Partly Cloudy